Flag for Bermuda Weather past 2 weeks in Hamilton, Bermuda

Now
81 °F

Passing clouds.


Feels Like: 86 °F
Forecast: 79 / 83 °F
Wind: 6 mph from Southeast

Location: Bermuda

Current Time: Sep 24, 2014 at 2:30:52 AM

Latest Report: Sep 24, 2014 at 1:55 AM


Visibility: N/A

Pressure: 30.21 "Hg

Humidity: 84%

Dew point: 75 °F

Location of HamiltonLocation

Historic Weather in Hamilton — Graph

°F

Hamilton temperature yesterday

Maximum temperature yesterday: 86 °F (at 2:55 PM)
Minimum temperature yesterday: 81 °F (at 12:55 AM)
Average temperature yesterday: 82 °F

Past Weeks' High & Low Weather Summary

 TemperatureHumidityPressure
High86 °F (Sep 9, 1:55 PM)100% (Sep 12, 6:55 AM)30.21 "Hg (Sep 12, 6:55 AM)
Low73 °F (Sep 18, 2:55 PM)62% (Sep 9, 1:55 PM)29.86 "Hg (Sep 17, 2:55 AM)
Average81 °F82%30.06 "Hg
* Reported Sep 9 1:55 AM — Sep 24 12:55 AM, Hamilton, Weather by CustomWeather, © 2014

Note: Actual official high and low records may vary slightly from our data, if they occured in-between our weather recording intervals... More about our weather records

Advertising

Hamilton weather history for previous 24 hours

 ConditionsComfort  
Time TempWeatherWind HumidityBarometerVisibility
12:55 AM
Sep 24
81 °FPassing clouds.6 mph84%30.21 "HgN/A
11:55 PM
Sep 23
81 °FPassing clouds.7 mph84%30.21 "HgN/A
10:55 PM81 °FPassing clouds.7 mph84%30.21 "HgN/A
9:55 PM81 °FPassing clouds.8 mph84%30.21 "HgN/A
8:55 PM81 °FPassing clouds.5 mph84%30.21 "HgN/A
7:55 PM81 °FScattered clouds.3 mph89%30.18 "HgN/A
6:55 PM82 °FTornado. Scattered clouds.5 mph84%30.18 "HgN/A
5:55 PM82 °FPassing clouds.6 mph79%30.18 "HgN/A
4:55 PM84 °FPassing clouds.6 mph74%30.18 "HgN/A
3:55 PM84 °FPassing clouds.6 mph74%30.15 "HgN/A
2:55 PM86 °FPassing clouds.7 mph75%30.18 "HgN/A
1:55 PM84 °FScattered clouds.8 mph74%30.18 "HgN/A
12:55 PM84 °FScattered clouds.7 mph79%30.18 "HgN/A
11:55 AM84 °FScattered clouds.6 mph79%30.18 "HgN/A
10:55 AM84 °FScattered clouds.7 mph79%30.18 "HgN/A
9:55 AM82 °FScattered clouds.9 mph79%30.18 "HgN/A
8:55 AM81 °FScattered clouds.10 mph84%30.15 "HgN/A
7:55 AM81 °FPassing clouds.8 mph89%30.15 "HgN/A
6:55 AM81 °FPartly cloudy.10 mph84%30.15 "HgN/A
5:55 AM81 °FPassing clouds.12 mph89%30.12 "HgN/A
4:55 AM81 °FPassing clouds.14 mph89%30.12 "HgN/A
3:55 AM81 °FScattered showers. Passing clouds.12 mph89%30.12 "HgN/A
2:55 AM81 °FPassing clouds.10 mph89%30.15 "HgN/A
Weather by CustomWeather, © 2014

See weather overviewHow to use our weather pages